Total_Precipitation_Accumulation
1.46 1.57 2.32 3.22 3.64 3.16 2.82 2.29 1.82 1.52 1.29 1.01 0.80 0.77 1.15 1.55 2.01 2.33 2.19 2.00 1.54 1.28 1.39 2.01 2.51 2.24 1.92 1.74 1.77 1.88 1.83 1.88 1.74 1.67 1.48 1.31 1.12 1.04 0.95 0.86 0.81 0.81 0.75 0.71 0.77 0.92 0.91 0.94 0.97
1.36 2.21 3.10 3.94 3.53 2.77 2.66 2.22 1.88 1.45 0.99 0.77 0.62 0.64 0.84 0.84 0.82 1.24 2.15 2.24 1.51 1.22 1.29 1.79 2.56 2.23 2.05 1.96 1.96 1.88 1.86 1.92 1.72 1.59 1.46 1.32 1.20 1.16 1.12 1.17 1.19 1.02 0.86 0.80 0.81 0.94 0.92 0.88 0.95
1.60 2.87 3.97 3.90 2.81 2.42 2.64 2.18 1.61 1.15 0.77 0.73 0.68 0.61 0.75 0.97 1.05 1.64 2.28 1.96 1.45 1.23 1.35 2.06 2.55 2.21 2.08 2.04 2.01 1.87 1.95 1.98 1.76 1.55 1.36 1.25 1.26 1.39 1.43 1.39 1.25 1.04 0.89 0.82 0.82 0.89 0.94 0.90 0.87
2.07 3.30 3.47 2.98 2.60 2.20 2.03 1.81 1.37 1.29 0.95 0.68 0.66 0.69 0.66 0.98 1.19 1.63 1.81 1.59 1.44 1.43 1.45 2.06 2.53 2.28 2.09 2.08 2.00 1.90 1.92 1.98 1.88 1.58 1.37 1.26 1.27 1.28 1.29 1.31 1.21 1.03 0.89 0.79 0.86 0.93 0.93 0.92 0.91
2.56 3.18 3.12 2.67 2.45 2.10 1.61 1.44 1.27 1.39 1.21 0.81 0.67 0.87 1.01 1.35 1.49 1.57 1.63 1.62 1.34 1.35 1.43 1.80 2.26 2.12 1.95 1.94 1.94 1.96 1.95 1.94 1.90 1.64 1.46 1.40 1.34 1.23 1.21 1.20 1.13 0.95 0.83 0.79 0.89 0.96 0.94 0.92 0.96
2.83 2.85 3.03 2.85 2.63 2.27 1.81 1.50 1.34 1.32 1.14 0.86 0.81 1.00 1.31 1.81 1.83 1.75 1.54 1.55 1.46 1.33 1.33 1.55 2.00 2.08 1.93 1.87 1.82 1.87 1.89 1.91 1.82 1.52 1.39 1.34 1.33 1.26 1.19 1.15 1.11 0.97 0.96 0.93 0.89 0.89 0.91 0.95 0.96
2.76 2.74 2.67 2.44 2.64 2.77 2.17 1.48 1.49 1.35 1.26 1.03 0.81 1.13 1.39 1.96 1.79 1.77 1.66 1.60 1.65 1.48 1.43 1.51 1.77 1.90 2.14 2.13 1.98 1.94 1.90 1.87 1.77 1.50 1.38 1.30 1.19 1.07 1.04 1.04 0.99 1.01 1.03 0.94 0.86 0.82 0.83 0.89 0.93
2.20 2.24 2.13 2.20 2.52 2.68 1.97 1.23 1.10 1.28 1.28 0.88 0.76 1.08 1.39 1.70 1.63 1.74 1.80 1.71 1.61 1.55 1.50 1.46 1.55 1.60 1.77 1.93 2.05 2.05 1.99 1.91 1.82 1.56 1.41 1.32 1.14 0.98 0.96 0.90 0.94 0.98 1.05 1.09 0.98 0.91 0.90 0.92 0.99
2.04 2.31 2.36 2.52 2.39 2.23 1.55 1.25 1.05 0.95 1.04 0.88 0.77 0.88 1.25 1.31 1.40 1.67 1.84 1.80 1.57 1.43 1.35 1.30 1.33 1.46 1.62 1.81 1.96 2.09 2.02 1.95 1.82 1.61 1.48 1.36 1.09 0.94 0.91 0.85 1.07 1.05 1.07 1.11 1.11 1.14 1.13 1.03 0.98
2.12 2.44 2.44 2.11 1.63 1.54 1.33 1.16 1.05 0.96 1.07 1.03 0.93 0.99 1.33 1.47 1.49 1.63 1.62 1.55 1.42 1.45 1.28 1.10 1.12 1.22 1.34 1.47 1.88 1.90 1.65 1.58 1.48 1.63 1.49 1.33 1.27 1.13 0.77 0.82 1.06 1.21 1.23 1.15 1.11 1.21 1.09 0.85 0.73
1.70 1.91 1.66 1.62 1.28 1.10 1.11 1.04 0.93 1.09 1.22 0.97 0.98 1.08 1.41 1.61 1.52 1.55 1.51 1.39 1.34 1.29 1.20 1.09 1.03 0.98 0.99 1.12 1.37 1.52 1.55 1.58 1.48 1.42 1.33 1.30 1.17 0.97 0.80 0.83 0.84 0.89 0.95 0.87 0.89 0.88 0.74 0.68 0.72
1.50 1.41 1.19 1.30 1.12 1.09 1.11 0.97 0.92 0.98 1.05 0.77 0.83 1.06 1.40 1.57 1.53 1.46 1.34 1.26 1.19 1.10 1.09 1.03 0.93 0.84 0.76 0.78 0.85 0.97 1.15 1.28 1.30 1.13 1.02 1.06 1.08 0.98 0.82 0.82 0.82 0.82 0.85 0.95 0.97 0.96 0.88 0.83 0.81
1.66 1.46 1.22 1.16 1.11 1.05 0.99 0.94 0.89 0.87 0.79 0.77 0.85 1.15 1.44 1.66 1.72 1.66 1.38 1.11 1.02 1.03 1.03 0.94 0.79 0.77 0.70 0.70 0.71 0.68 0.91 1.10 1.19 1.19 1.02 0.96 0.97 0.98 0.93 0.79 0.79 0.74 0.78 0.85 0.89 0.90 0.95 1.02 0.98
1.51 1.36 1.29 1.27 1.14 0.98 0.99 0.95 0.88 1.02 0.88 0.86 0.88 1.05 1.20 1.37 1.41 1.31 1.25 0.97 0.83 0.86 0.98 0.90 0.82 0.83 0.75 0.65 0.65 0.65 0.76 0.90 0.93 1.07 1.08 1.00 0.92 0.89 0.94 0.88 0.88 0.89 0.86 0.84 0.83 0.82 0.95 1.02 1.07
1.16 1.37 1.38 1.30 1.17 1.05 0.96 1.15 1.04 1.08 0.99 0.99 0.98 0.98 1.09 1.17 1.23 1.09 0.95 0.79 0.77 0.77 0.79 0.75 0.74 0.79 0.78 0.74 0.69 0.70 0.82 0.85 0.88 0.93 0.91 0.97 0.89 0.84 0.89 0.91 0.91 0.93 0.92 0.89 0.90 0.92 1.01 1.04 1.14
1.24 1.53 1.75 1.42 1.23 1.18 1.21 1.40 1.23 1.19 1.09 1.03 0.96 0.97 0.99 1.07 1.18 1.13 0.98 0.75 0.71 0.67 0.67 0.69 0.62 0.70 0.80 0.85 0.85 0.90 0.94 0.96 1.00 0.94 0.89 0.88 0.83 0.80 0.90 0.93 0.95 1.00 0.92 0.90 0.98 1.06 1.17 1.20 1.26
1.52 1.54 1.48 1.40 1.17 1.15 1.21 1.27 1.18 1.24 1.17 1.00 0.87 0.85 0.80 0.88 0.93 0.93 0.91 0.81 0.73 0.65 0.66 0.70 0.68 0.72 0.80 0.86 0.95 1.03 1.09 1.15 1.27 1.21 1.17 1.11 0.99 0.99 1.07 1.12 1.13 1.13 1.14 1.07 0.99 1.04 1.20 1.35 1.36
1.42 1.13 1.07 1.11 1.07 1.00 1.07 1.01 1.04 1.15 1.11 0.99 0.82 0.75 0.69 0.73 0.74 0.73 0.77 0.78 0.78 0.73 0.68 0.73 0.80 0.84 0.95 1.10 1.26 1.44 1.54 1.69 1.86 1.80 1.67 1.47 1.30 1.26 1.39 1.38 1.29 1.34 1.45 1.51 1.32 1.38 1.34 1.30 1.38
0.86 0.84 0.87 0.80 0.74 0.82 0.84 0.86 0.89 0.89 0.92 0.84 0.67 0.63 0.63 0.63 0.65 0.65 0.68 0.73 0.75 0.73 0.71 0.70 0.74 0.81 0.94 1.14 1.40 1.80 2.02 2.14 2.12 2.12 2.04 1.81 1.59 1.59 1.79 1.78 1.73 1.72 1.73 1.70 1.64 1.80 1.74 1.46 1.38
0.73 0.79 0.80 0.75 0.65 0.67 0.66 0.69 0.69 0.67 0.62 0.59 0.53 0.49 0.53 0.54 0.62 0.60 0.57 0.59 0.64 0.62 0.64 0.74 0.73 0.78 0.90 1.15 1.42 1.73 2.05 2.10 2.11 2.12 2.09 1.98 1.83 1.81 1.86 2.09 2.19 2.15 2.30 2.27 2.07 2.22 2.25 1.86 1.62
0.69 0.75 0.74 0.79 0.75 0.66 0.62 0.69 0.68 0.61 0.51 0.45 0.42 0.41 0.44 0.44 0.51 0.54 0.53 0.52 0.56 0.53 0.50 0.61 0.70 0.81 1.07 1.37 1.62 1.77 2.02 2.10 2.14 2.09 2.10 2.14 2.08 1.97 2.02 2.15 2.31 2.32 2.40 2.54 2.59 2.51 2.62 2.44 2.03
0.74 0.52 0.48 0.55 0.81 0.86 0.65 0.80 0.66 0.54 0.56 0.50 0.44 0.40 0.41 0.43 0.44 0.45 0.49 0.50 0.47 0.43 0.40 0.47 0.58 0.81 1.17 1.51 1.72 1.92 2.24 2.29 2.19 2.19 2.15 2.16 2.19 2.17 2.27 2.31 2.41 2.42 2.42 2.53 2.61 2.56 2.72 2.83 2.46
0.53 0.43 0.43 0.49 0.67 0.73 0.56 0.58 0.59 0.52 0.57 0.56 0.50 0.47 0.42 0.38 0.35 0.36 0.38 0.40 0.41 0.44 0.44 0.48 0.64 0.90 1.21 1.44 1.69 2.03 2.22 2.28 2.36 2.24 2.20 2.19 2.24 2.26 2.31 2.40 2.57 2.55 2.53 2.50 2.69 2.73 2.83 2.76 2.71
0.38 0.47 0.54 0.55 0.67 0.71 0.39 0.46 0.58 0.50 0.42 0.44 0.46 0.45 0.39 0.35 0.33 0.35 0.38 0.39 0.42 0.45 0.51 0.62 0.79 0.96 1.22 1.43 1.67 1.85 2.05 2.16 2.25 2.30 2.21 2.17 2.24 2.33 2.19 2.12 2.30 2.36 2.40 2.39 2.57 2.73 2.86 2.83 2.87
0.39 0.69 0.94 0.93 0.93 0.72 0.33 0.44 0.58 0.41 0.31 0.33 0.37 0.40 0.38 0.40 0.42 0.47 0.49 0.56 0.64 0.67 0.70 0.80 0.92 1.08 1.22 1.35 1.49 1.56 1.69 1.84 1.83 1.97 2.02 2.12 2.13 2.17 2.17 2.06 2.07 2.11 2.08 2.11 2.24 2.30 2.37 2.51 2.68
0.35 0.54 0.89 0.95 0.80 0.63 0.46 0.64 0.64 0.42 0.35 0.35 0.36 0.41 0.43 0.51 0.58 0.68 0.76 0.85 0.94 0.96 0.98 1.05 1.11 1.13 1.19 1.26 1.33 1.38 1.45 1.53 1.55 1.55 1.53 1.68 1.84 1.85 1.92 1.91 1.86 1.91 1.98 1.98 2.09 2.11 2.12 2.16 2.23
0.34 0.40 0.47 0.61 0.53 0.54 0.54 0.66 0.61 0.45 0.42 0.42 0.44 0.49 0.57 0.74 0.83 0.93 1.05 1.10 1.09 1.09 1.08 1.12 1.16 1.15 1.15 1.20 1.21 1.14 1.14 1.22 1.30 1.29 1.33 1.36 1.42 1.41 1.46 1.55 1.63 1.73 1.80 1.87 2.01 2.11 2.10 2.05 2.02
0.31 0.42 0.56 0.84 0.94 0.82 0.67 0.77 0.77 0.60 0.50 0.47 0.54 0.65 0.81 1.06 1.19 1.31 1.43 1.38 1.31 1.30 1.36 1.28 1.21 1.14 1.11 1.12 1.17 1.08 1.05 1.10 1.12 1.08 1.12 1.10 1.10 1.09 1.13 1.24 1.42 1.66 1.77 1.80 1.88 1.98 2.06 2.06 2.02
0.34 0.46 0.63 0.90 0.99 1.14 1.18 1.22 0.93 0.74 0.68 0.76 0.90 1.01 1.20 1.44 1.59 1.69 1.70 1.62 1.45 1.32 1.33 1.30 1.18 1.08 0.98 0.99 1.08 1.10 1.03 1.05 1.07 1.04 0.97 0.93 0.92 0.97 1.06 1.10 1.24 1.41 1.59 1.78 1.93 1.97 1.97 1.99 1.97
0.42 0.60 0.81 1.26 1.23 1.11 1.30 1.43 1.03 0.84 0.82 0.85 0.94 1.11 1.32 1.43 1.51 1.54 1.50 1.50 1.39 1.29 1.21 1.19 1.10 0.95 0.91 0.96 1.01 1.06 0.97 0.94 0.98 0.96 0.98 0.88 0.81 0.81 0.87 1.00 1.20 1.32 1.41 1.47 1.57 1.64 1.70 1.75 1.81